Location: Wien
(48.2082°N, 16.3738°E)
Time: 07:54:13
(UTC+01:00)

Envisat - Pass Details

Date: 30 October 2019
Orbit: 764 x 766 km, 98.1° (Epoch: 13 November)

Event Time Altitude Azimuth Distance (km) Brightness Sun altitude
Rises 18:58:42 0° 202° (SSW) 3,220 6.4 -23.7°
Reaches altitude 10° 19:01:27 10° 216° (SW) 2,299 5.8 -24.1°
Maximum altitude 19:05:26 23° 268° (W) 1,588 5.4 -24.8°
Drops below altitude 10° 19:09:27 10° 321° (NW) 2,312 6.1 -25.4°
Sets 19:12:14 0° 335° (NNW) 3,243 6.7 -25.9°
